IGO353K VOBL-VOMM

Flight info

Callsign IGO353K
Flight time 0h 47m
Altitude 27000
Route TULNA7B TULNA DCT BUTLA DCT MMV
Aircraft A320/M-SDE3FGHIRWY/LB1

Departure

Time 2026-04-27 05:36
Airport Kempegowda International Airport Bengaluru (VOBL)

Arrival

Time 2026-04-27 06:24
Airport Chennai International Airport (VOMM)
Time Latitude Longitude Altitude Speed Heading
2026-04-27 05:13 13.20167 77.71241 2969 ft 0 kts 180°
2026-04-27 05:27 13.20169 77.71241 2969 ft 1 kts 179°
2026-04-27 05:27 13.20177 77.71241 2969 ft 1 kts 179°
2026-04-27 05:27 13.20185 77.71241 2968 ft 1 kts 179°
2026-04-27 05:28 13.20196 77.71240 2968 ft 2 kts 161°
2026-04-27 05:28 13.20209 77.71233 2968 ft 2 kts 142°
2026-04-27 05:28 13.20222 77.71224 2968 ft 2 kts 139°
2026-04-27 05:28 13.20231 77.71213 2968 ft 2 kts 112°
2026-04-27 05:29 13.20235 77.71201 2969 ft 0 kts 92°
2026-04-27 05:30 13.20234 77.71208 2969 ft 4 kts 91°
2026-04-27 05:30 13.20235 77.71227 2969 ft 3 kts 88°
2026-04-27 05:31 13.20259 77.71275 2969 ft 5 kts 35°
2026-04-27 05:31 13.20281 77.71276 2969 ft 4 kts 350°
2026-04-27 05:31 13.20326 77.71272 2969 ft 9 kts 356°
2026-04-27 05:31 13.20363 77.71271 2969 ft 0 kts 358°
2026-04-27 05:32 13.20364 77.71271 2969 ft 1 kts 358°
2026-04-27 05:32 13.20402 77.71271 2969 ft 9 kts
2026-04-27 05:32 13.20493 77.71277 2962 ft 16 kts
2026-04-27 05:33 13.20535 77.71303 2966 ft 4 kts 68°
2026-04-27 05:33 13.20531 77.71323 2966 ft 6 kts 105°
2026-04-27 05:33 13.20520 77.71392 2966 ft 15 kts 92°
2026-04-27 05:33 13.20515 77.71530 2968 ft 23 kts 91°
2026-04-27 05:34 13.20516 77.71700 2970 ft 26 kts 90°
2026-04-27 05:34 13.20517 77.71910 2969 ft 33 kts 91°
2026-04-27 05:34 13.20514 77.72169 2968 ft 39 kts 89°
2026-04-27 05:34 13.20517 77.72253 2967 ft 5 kts 77°
2026-04-27 05:35 13.20565 77.72303 2966 ft 16 kts 24°
2026-04-27 05:35 13.20688 77.72281 2967 ft 14 kts 318°
2026-04-27 05:35 13.20695 77.72236 2967 ft 7 kts 268°
2026-04-27 05:35 13.20687 77.72028 2967 ft 71 kts 272°
2026-04-27 05:36 13.20671 77.71236 2969 ft 146 kts 264°
2026-04-27 05:36 13.20590 77.70083 3384 ft 164 kts 271°
2026-04-27 05:36 13.20724 77.68915 4179 ft 171 kts 276°
2026-04-27 05:36 13.21046 77.67718 4894 ft 178 kts 296°
2026-04-27 05:37 13.21724 77.66599 5386 ft 197 kts 304°
2026-04-27 05:37 13.22562 77.65384 5802 ft 219 kts 304°
2026-04-27 05:37 13.23460 77.64016 6216 ft 242 kts 302°
2026-04-27 05:37 13.24398 77.62481 6643 ft 258 kts 301°
2026-04-27 05:38 13.25315 77.60896 7124 ft 264 kts 300°
2026-04-27 05:38 13.26275 77.59191 7537 ft 287 kts 300°
2026-04-27 05:38 13.27296 77.57363 7944 ft 291 kts 300°
2026-04-27 05:38 13.28311 77.55548 8350 ft 295 kts 300°
2026-04-27 05:39 13.29185 77.53641 8764 ft 299 kts 284°
2026-04-27 05:39 13.29221 77.51502 9172 ft 306 kts 256°
2026-04-27 05:39 13.28314 77.49533 9585 ft 310 kts 229°
2026-04-27 05:39 13.26667 77.48120 10001 ft 311 kts 209°
2026-04-27 05:40 13.24719 77.47027 10398 ft 330 kts 205°
2026-04-27 05:40 13.22618 77.45936 10794 ft 353 kts 206°
2026-04-27 05:40 13.20404 77.44736 11195 ft 362 kts 207°
2026-04-27 05:40 13.18142 77.43575 11590 ft 363 kts 197°
2026-04-27 05:41 13.15664 77.43155 12003 ft 361 kts 176°
2026-04-27 05:41 13.13207 77.43652 12423 ft 358 kts 155°
2026-04-27 05:41 13.11109 77.44992 12846 ft 355 kts 134°
2026-04-27 05:41 13.09607 77.46973 13280 ft 352 kts 117°
2026-04-27 05:42 13.08498 77.49220 13709 ft 353 kts 113°
2026-04-27 05:42 13.07479 77.51531 14106 ft 355 kts 110°
2026-04-27 05:42 13.06718 77.53894 14486 ft 356 kts 102°
2026-04-27 05:42 13.06293 77.56425 14880 ft 358 kts 92°
2026-04-27 05:43 13.06172 77.58990 15268 ft 360 kts 91°
2026-04-27 05:43 13.06073 77.61570 15674 ft 363 kts 91°
2026-04-27 05:43 13.05959 77.64140 16068 ft 366 kts 92°
2026-04-27 05:43 13.05822 77.66752 16482 ft 368 kts 92°
2026-04-27 05:44 13.05670 77.69395 16892 ft 371 kts 93°
2026-04-27 05:44 13.05507 77.72061 17316 ft 374 kts 93°
2026-04-27 05:44 13.05338 77.74715 17740 ft 377 kts 94°
2026-04-27 05:44 13.05166 77.77412 18175 ft 380 kts 94°
2026-04-27 05:45 13.04995 77.80129 18572 ft 383 kts 94°
2026-04-27 05:45 13.04823 77.82866 18940 ft 385 kts 94°
2026-04-27 05:45 13.04654 77.85578 19304 ft 387 kts 94°
2026-04-27 05:45 13.04483 77.88375 19704 ft 389 kts 94°
2026-04-27 05:46 13.04310 77.91165 20094 ft 392 kts 94°
2026-04-27 05:46 13.04136 77.93959 20484 ft 394 kts 94°
2026-04-27 05:46 13.03960 77.96782 20882 ft 397 kts 94°
2026-04-27 05:46 13.03786 77.99582 21279 ft 400 kts 94°
2026-04-27 05:47 13.03610 78.02439 21698 ft 403 kts 94°
2026-04-27 05:47 13.03433 78.05327 22106 ft 406 kts 94°
2026-04-27 05:47 13.03254 78.08224 22533 ft 409 kts 94°
2026-04-27 05:47 13.03074 78.11141 22959 ft 412 kts 94°
2026-04-27 05:48 13.02893 78.14086 23392 ft 415 kts 94°
2026-04-27 05:48 13.02708 78.17059 23783 ft 418 kts 94°
2026-04-27 05:48 13.02523 78.20042 24147 ft 421 kts 94°
2026-04-27 05:48 13.02337 78.23044 24519 ft 424 kts 94°
2026-04-27 05:49 13.02147 78.26112 24900 ft 427 kts 94°
2026-04-27 05:49 13.01960 78.29132 25279 ft 430 kts 94°
2026-04-27 05:49 13.01770 78.32204 25660 ft 433 kts 94°
2026-04-27 05:49 13.01578 78.35301 26052 ft 436 kts 94°
2026-04-27 05:50 13.01385 78.38388 26442 ft 439 kts 94°
2026-04-27 05:50 13.01190 78.41520 26823 ft 443 kts 94°
2026-04-27 05:50 13.00991 78.44685 26937 ft 444 kts 94°
2026-04-27 05:50 13.00792 78.47849 26937 ft 444 kts 94°
2026-04-27 05:51 13.00592 78.51021 26923 ft 444 kts 94°
2026-04-27 05:51 13.00393 78.54185 26917 ft 444 kts 94°
2026-04-27 05:51 13.00192 78.57358 26913 ft 444 kts 94°
2026-04-27 05:51 12.99991 78.60521 26911 ft 444 kts 94°
2026-04-27 05:52 12.99790 78.63678 26907 ft 444 kts 94°
2026-04-27 05:52 12.99590 78.66809 26900 ft 444 kts 94°
2026-04-27 05:52 12.99387 78.70000 26896 ft 444 kts 94°
2026-04-27 05:52 12.99185 78.73160 26895 ft 444 kts 94°
2026-04-27 05:53 12.98985 78.76294 26885 ft 444 kts 94°
2026-04-27 05:53 12.98781 78.79464 26882 ft 444 kts 94°
2026-04-27 05:53 12.98578 78.82629 26880 ft 444 kts 94°
2026-04-27 05:53 12.98374 78.85792 26873 ft 444 kts 94°
2026-04-27 05:54 12.98170 78.88961 26869 ft 444 kts 94°
2026-04-27 05:54 12.97966 78.92127 26872 ft 445 kts 94°
2026-04-27 05:54 12.97768 78.95206 26869 ft 428 kts 94°
2026-04-27 05:54 12.97577 78.98177 26855 ft 406 kts 94°
2026-04-27 05:55 12.97395 79.01007 26854 ft 386 kts 94°
2026-04-27 05:55 12.97222 79.03695 26853 ft 367 kts 94°
2026-04-27 05:55 12.97057 79.06250 26853 ft 350 kts 94°
2026-04-27 05:55 12.96900 79.08664 26851 ft 339 kts 94°
2026-04-27 05:56 12.96689 79.11090 26858 ft 344 kts 103°
2026-04-27 05:56 12.95781 79.13369 26849 ft 346 kts 125°
2026-04-27 05:56 12.94122 79.15093 26852 ft 345 kts 148°
2026-04-27 05:56 12.91924 79.16045 26851 ft 345 kts 170°
2026-04-27 05:57 12.89532 79.16055 26846 ft 345 kts 193°
2026-04-27 05:57 12.87328 79.15119 26855 ft 345 kts 216°
2026-04-27 05:57 12.85645 79.13384 26848 ft 345 kts 238°
2026-04-27 05:57 12.84672 79.11148 26851 ft 345 kts 257°
2026-04-27 05:58 12.84470 79.08736 26851 ft 345 kts 275°
2026-04-27 05:58 12.84692 79.06290 26851 ft 345 kts 275°
2026-04-27 05:58 12.84903 79.03842 26852 ft 345 kts 274°
2026-04-27 05:58 12.85080 79.01381 26854 ft 345 kts 273°
2026-04-27 05:59 12.85232 78.98929 26856 ft 345 kts 272°
2026-04-27 05:59 12.85373 78.96483 26855 ft 345 kts 272°
2026-04-27 05:59 12.85554 78.94019 26851 ft 345 kts 279°
2026-04-27 05:59 12.86351 78.91721 26867 ft 345 kts 301°
2026-04-27 06:00 12.90057 78.88704 26870 ft 345 kts 345°
2026-04-27 06:00 12.92402 78.88452 26867 ft 344 kts
2026-04-27 06:00 12.94701 78.89118 26848 ft 345 kts 28°
2026-04-27 06:01 12.96607 78.90598 26591 ft 346 kts 49°
2026-04-27 06:01 12.97839 78.92692 26241 ft 343 kts 71°
2026-04-27 06:01 12.98195 78.95080 25884 ft 338 kts 94°
2026-04-27 06:01 12.97866 78.97514 25547 ft 364 kts 99°
2026-04-27 06:02 12.97478 79.00196 25203 ft 392 kts 97°
2026-04-27 06:02 12.97175 79.02994 24856 ft 395 kts 94°
2026-04-27 06:02 12.96954 79.05759 24527 ft 390 kts 93°
2026-04-27 06:02 12.96775 79.08532 24189 ft 386 kts 92°
2026-04-27 06:03 12.96570 79.11278 23853 ft 384 kts 98°
2026-04-27 06:03 12.96184 79.13048 23651 ft 383 kts 105°
2026-04-27 06:03 12.95058 79.16494 23175 ft 382 kts 109°
2026-04-27 06:03 12.94459 79.18187 22917 ft 380 kts 108°
2026-04-27 06:04 12.93583 79.20734 22528 ft 376 kts 107°
2026-04-27 06:04 12.92759 79.23266 22143 ft 373 kts 106°
2026-04-27 06:04 12.91958 79.25866 21767 ft 370 kts 105°
2026-04-27 06:04 12.91212 79.28377 21397 ft 367 kts 105°
2026-04-27 06:05 12.90481 79.30879 21047 ft 364 kts 104°
2026-04-27 06:05 12.89760 79.33352 20676 ft 362 kts 104°
2026-04-27 06:05 12.89038 79.35831 20323 ft 360 kts 104°
2026-04-27 06:05 12.88333 79.38246 19979 ft 357 kts 104°
2026-04-27 06:06 12.87618 79.40685 19632 ft 355 kts 104°
2026-04-27 06:06 12.86910 79.43098 19291 ft 352 kts 104°
2026-04-27 06:06 12.86202 79.45497 18957 ft 350 kts 104°
2026-04-27 06:06 12.85529 79.47891 18639 ft 348 kts 100°
2026-04-27 06:07 12.85316 79.50347 18292 ft 346 kts 83°
2026-04-27 06:07 12.85827 79.52715 17928 ft 344 kts 73°
2026-04-27 06:07 12.86479 79.55061 17542 ft 341 kts 74°
2026-04-27 06:07 12.87109 79.57434 17164 ft 339 kts 76°
2026-04-27 06:08 12.87693 79.59770 16787 ft 336 kts 77°
2026-04-27 06:08 12.88252 79.62089 16415 ft 334 kts 77°
2026-04-27 06:08 12.88803 79.64402 16054 ft 332 kts 77°
2026-04-27 06:08 12.89315 79.66561 15713 ft 330 kts 77°
2026-04-27 06:09 12.89859 79.68842 15359 ft 328 kts 77°
2026-04-27 06:09 12.90398 79.71083 15016 ft 326 kts 77°
2026-04-27 06:09 12.90943 79.73331 14666 ft 324 kts 77°
2026-04-27 06:09 12.91489 79.75569 14319 ft 323 kts 77°
2026-04-27 06:10 12.92034 79.77797 13979 ft 321 kts 77°
2026-04-27 06:10 12.92580 79.80019 13647 ft 320 kts 77°
2026-04-27 06:10 12.93120 79.82218 13264 ft 317 kts 76°
2026-04-27 06:10 12.93662 79.84409 12885 ft 315 kts 76°
2026-04-27 06:11 12.94200 79.86582 12513 ft 313 kts 76°
2026-04-27 06:11 12.94737 79.88741 12141 ft 311 kts 76°
2026-04-27 06:11 12.95360 79.90855 11778 ft 308 kts 71°
2026-04-27 06:11 12.96115 79.92907 11424 ft 306 kts 69°
2026-04-27 06:12 12.96883 79.94933 11076 ft 305 kts 69°
2026-04-27 06:12 12.97639 79.96924 10719 ft 302 kts 69°
2026-04-27 06:12 12.98397 79.98932 10377 ft 301 kts 69°
2026-04-27 06:12 12.99153 80.00931 10034 ft 299 kts 69°
2026-04-27 06:13 12.99902 80.02914 9685 ft 297 kts 69°
2026-04-27 06:13 13.00645 80.04883 9310 ft 295 kts 69°
2026-04-27 06:13 13.01374 80.06817 8948 ft 292 kts 69°
2026-04-27 06:13 13.02097 80.08739 8573 ft 286 kts 69°
2026-04-27 06:14 13.02805 80.10622 8214 ft 280 kts 69°
2026-04-27 06:14 13.03496 80.12470 7853 ft 275 kts 69°
2026-04-27 06:14 13.04174 80.14283 7487 ft 266 kts 69°
2026-04-27 06:14 13.04835 80.16063 7132 ft 269 kts 69°
2026-04-27 06:15 13.05473 80.17861 6784 ft 267 kts 69°
2026-04-27 06:15 13.06128 80.19639 6440 ft 268 kts 69°
2026-04-27 06:15 13.06788 80.21429 6087 ft 268 kts 69°
2026-04-27 06:15 13.07452 80.23222 5723 ft 269 kts 69°
2026-04-27 06:16 13.08125 80.25009 5370 ft 266 kts 69°
2026-04-27 06:16 13.08790 80.26745 5004 ft 256 kts 69°
2026-04-27 06:16 13.09433 80.28394 4660 ft 249 kts 69°
2026-04-27 06:16 13.10087 80.30045 4290 ft 244 kts 69°
2026-04-27 06:17 13.10721 80.31618 3928 ft 239 kts 69°
2026-04-27 06:17 13.11127 80.33242 3567 ft 232 kts 95°
2026-04-27 06:17 13.10688 80.34782 3228 ft 223 kts 124°
2026-04-27 06:17 13.09796 80.36059 2862 ft 217 kts 136°
2026-04-27 06:18 13.08768 80.37163 2498 ft 211 kts 138°
2026-04-27 06:18 13.07754 80.38226 2321 ft 209 kts 139°
2026-04-27 06:18 13.06522 80.38899 2294 ft 201 kts 179°
2026-04-27 06:18 13.05239 80.38456 2290 ft 200 kts 225°
2026-04-27 06:19 13.04679 80.37151 2299 ft 210 kts 262°
2026-04-27 06:19 13.04632 80.35682 2282 ft 197 kts 266°
2026-04-27 06:19 13.04617 80.34339 2305 ft 186 kts 264°
2026-04-27 06:19 13.04568 80.33014 2287 ft 186 kts 262°
2026-04-27 06:20 13.04422 80.31720 2291 ft 183 kts 253°
2026-04-27 06:20 13.04082 80.30455 2294 ft 184 kts 246°
2026-04-27 06:20 13.03638 80.29221 2210 ft 185 kts 244°
2026-04-27 06:20 13.03174 80.28000 1955 ft 184 kts 245°
2026-04-27 06:21 13.02725 80.26795 1721 ft 174 kts 244°
2026-04-27 06:21 13.02324 80.25711 1504 ft 152 kts 243°
2026-04-27 06:21 13.01964 80.24746 1322 ft 140 kts 242°
2026-04-27 06:21 13.01608 80.23812 1139 ft 138 kts 242°
2026-04-27 06:22 13.01258 80.22886 972 ft 139 kts 242°
2026-04-27 06:22 13.00903 80.21939 799 ft 141 kts 243°
2026-04-27 06:22 13.00556 80.21017 635 ft 136 kts 244°
2026-04-27 06:22 13.00222 80.20122 451 ft 141 kts 244°
2026-04-27 06:23 12.99874 80.19201 269 ft 131 kts 245°
2026-04-27 06:23 12.99558 80.18308 98 ft 136 kts 244°
2026-04-27 06:23 12.99202 80.17437 53 ft 116 kts 249°
2026-04-27 06:23 12.98993 80.16890 50 ft 60 kts 250°
2026-04-27 06:24 12.98868 80.16550 56 ft 46 kts 251°
2026-04-27 06:24 12.98782 80.16391 52 ft 1 kts 223°
2026-04-27 06:24 12.98766 80.16375 54 ft 6 kts 223°
2026-04-27 06:24 12.98721 80.16346 55 ft 10 kts 214°
2026-04-27 06:25 12.98656 80.16293 54 ft 13 kts 222°
2026-04-27 06:25 12.98577 80.16221 53 ft 17 kts 221°
2026-04-27 06:25 12.98542 80.16168 55 ft 6 kts 253°
2026-04-27 06:25 12.98519 80.16123 54 ft 2 kts 217°
2026-04-27 06:26 12.98502 80.16124 49 ft 4 kts 164°
2026-04-27 06:26 12.98458 80.16141 55 ft 10 kts 158°
2026-04-27 06:26 12.98385 80.16182 55 ft 13 kts 131°
2026-04-27 06:26 12.98377 80.16200 55 ft 2 kts 93°
2026-04-27 06:27 12.98385 80.16212 55 ft 1 kts 47°
2026-04-27 06:27 12.98398 80.16240 52 ft 7 kts 66°
2026-04-27 06:27 12.98425 80.16310 53 ft 14 kts 72°
2026-04-27 06:27 12.98463 80.16423 52 ft 19 kts 69°
2026-04-27 06:28 12.98482 80.16469 54 ft 3 kts 68°
2026-04-27 06:28 12.98483 80.16508 53 ft 6 kts 125°
2026-04-27 06:28 12.98443 80.16527 53 ft 0 kts 158°
2026-04-27 06:28 12.98437 80.16529 54 ft 0 kts 158°
2026-04-27 06:29 12.98436 80.16530 54 ft 0 kts 158°